GFSNIL_sfc_thetae_000.txt.gz
Theta_e
334 333 332 330 329 329 330 330 331 332 334 334 333 333 334 332 333 332 331 330 330 330
335 334 335 335 332 328 332 332 332 333 333 334 333 332 332 332 332 333 331 331 330 329
332 336 335 337 334 329 332 333 331 332 332 332 333 333 334 333 333 331 329 329 329 328
333 336 334 333 333 328 329 331 331 330 332 332 332 331 334 332 331 330 329 328 326 326
335 336 334 333 334 330 331 332 332 333 332 332 333 334 332 330 330 328 327 327 325 324
336 334 335 333 333 331 329 331 332 332 332 331 332 331 331 332 331 329 328 327 325 324
335 334 336 335 334 334 333 329 329 332 332 331 331 332 333 332 331 330 329 328 327 326
333 337 336 334 334 333 333 332 331 332 332 331 332 332 332 332 331 330 329 329 330 328
327 331 333 335 332 331 330 332 330 325 326 325 318 306 316 328 331 329 328 328 325 321
325 326 332 332 332 330 332 334 328 327 326 323 316 305 307 317 329 328 328 326 323 322
322 324 328 330 331 333 333 333 331 327 326 321 310 305 306 318 332 331 329 328 326 321
321 324 326 328 331 334 335 333 332 329 327 320 316 303 303 319 329 329 327 327 326 329
319 325 326 332 333 334 336 334 330 329 330 319 319 299 299 307 326 326 324 323 314 305
321 326 330 334 334 334 334 331 332 329 330 328 321 310 298 297 316 322 318 317 317 309

GFSNIL_sfc_thetae_003.txt.gz
Theta_e
324 324 321 319 321 321 320 320 322 323 323 325 325 326 325 324 327 326 325 324 325 327
325 324 323 323 321 321 322 324 324 324 324 325 326 325 324 327 327 327 326 324 326 327
327 326 325 325 325 322 322 322 323 324 324 326 325 325 326 327 326 324 325 327 328 328
328 326 326 325 324 324 321 324 324 325 325 326 325 325 325 324 326 324 325 327 327 327
325 326 326 327 326 325 324 324 325 326 326 328 326 325 326 326 326 324 323 324 326 327
324 325 324 325 325 326 324 324 325 327 327 328 328 327 327 326 325 323 323 324 326 325
323 323 324 324 326 326 326 324 324 327 328 329 329 327 329 329 327 325 325 324 324 325
323 323 325 325 328 325 326 324 325 325 328 329 328 330 328 327 327 326 326 326 327 327
318 326 324 321 326 323 325 324 321 319 320 318 319 310 316 324 327 327 327 325 325 325
318 324 326 321 320 320 322 319 319 319 316 311 311 308 310 316 328 328 325 321 320 322
318 323 324 322 320 320 320 318 317 316 315 310 306 303 308 313 325 324 322 320 318 316
317 320 322 323 320 321 320 320 317 315 313 310 306 305 309 320 322 321 320 319 316 318
317 319 319 324 322 323 323 321 321 317 312 310 308 300 303 316 321 316 313 310 314 309
315 320 321 326 326 324 325 322 320 319 315 312 308 302 298 304 318 317 314 311 308 308

GFSNIL_sfc_thetae_006.txt.gz
Theta_e
320 318 317 318 318 317 317 317 319 321 321 322 322 323 321 323 323 322 321 322 322 324
321 320 319 319 319 318 318 320 321 321 321 322 323 322 323 324 323 324 325 326 325 325
325 322 322 319 319 319 319 320 321 321 321 322 322 322 324 323 322 326 327 327 326 326
324 323 323 322 319 320 320 320 322 322 323 322 322 323 323 321 323 325 326 327 326 324
324 323 322 321 321 321 320 321 322 324 324 324 322 323 324 323 324 324 324 325 326 325
323 321 323 321 321 322 322 322 324 325 324 325 324 323 323 323 322 323 324 325 326 326
321 321 321 322 321 322 323 323 324 325 326 326 325 325 324 323 321 320 323 326 326 326
320 321 323 323 321 322 322 323 324 325 326 326 326 327 326 325 325 324 322 322 325 325
320 323 323 323 321 323 322 320 322 323 324 324 327 309 313 322 325 325 324 323 325 324
317 323 320 321 319 320 316 316 317 318 318 317 319 306 309 315 326 325 324 324 324 326
317 321 318 318 318 317 315 315 313 313 313 314 316 305 307 311 327 325 324 323 323 324
317 321 319 316 316 316 314 313 312 312 311 311 310 303 305 317 323 322 320 319 318 319
316 320 320 316 317 317 315 314 313 311 311 307 306 302 306 315 320 317 314 313 315 307
315 317 321 318 319 319 318 316 312 311 310 309 305 301 302 306 317 315 310 312 311 306

GFSNIL_sfc_thetae_009.txt.gz
Theta_e
318 315 314 318 316 315 315 315 316 319 319 320 321 320 319 319 319 319 319 321 321 323
318 316 316 316 316 316 316 318 318 319 319 321 320 320 320 320 323 324 323 322 325 326
321 319 317 317 317 316 317 318 318 319 319 320 320 321 321 322 325 326 326 323 325 325
321 321 319 318 318 318 317 319 319 319 320 319 320 320 320 323 325 326 325 326 324 324
322 321 319 318 318 318 318 319 321 321 321 321 320 320 322 323 324 325 324 325 325 324
320 320 319 318 319 319 319 320 321 322 321 321 321 321 320 322 323 324 325 325 325 324
319 320 319 319 319 320 321 321 321 321 323 322 322 322 321 321 322 323 324 325 326 325
318 320 320 319 319 321 321 321 322 323 324 323 323 323 320 320 320 322 323 325 326 325
318 321 321 318 319 320 320 321 322 322 322 321 324 305 312 321 324 324 323 324 324 323
319 321 320 319 319 318 315 316 318 319 319 320 317 304 306 313 325 324 323 324 324 325
318 319 319 318 317 313 313 314 314 315 316 319 318 304 305 311 325 323 323 324 325 324
319 316 316 316 315 312 312 311 312 313 315 317 316 302 302 316 323 322 321 323 323 325
319 317 316 316 314 312 311 311 313 312 313 310 314 300 302 315 320 317 317 318 317 309
317 318 316 315 315 313 312 311 309 311 309 309 311 308 300 306 319 317 313 314 311 310

GFSNIL_sfc_thetae_012.txt.gz
Theta_e
319 316 317 318 318 317 317 319 320 322 322 323 323 322 322 322 322 322 324 325 324 324
319 317 318 319 319 318 318 320 321 322 322 323 323 323 323 323 322 324 324 325 325 326
320 319 319 319 318 319 320 322 321 322 322 323 323 323 324 325 327 326 326 327 327 326
321 321 319 320 319 320 320 321 321 322 322 322 322 323 325 326 327 326 325 327 325 325
322 322 320 320 320 320 320 322 322 323 322 322 322 324 325 325 326 326 325 325 324 323
322 320 320 319 320 321 321 322 323 323 323 323 323 322 323 325 325 326 326 326 325 324
320 321 320 320 321 321 323 323 323 323 323 323 323 322 321 323 324 325 326 326 325 325
320 321 320 321 321 322 323 323 324 324 323 324 323 323 322 322 324 325 325 326 325 326
321 322 321 321 321 322 323 323 324 324 324 323 323 304 311 320 323 326 326 324 323 323
322 322 319 321 321 320 320 321 322 323 323 323 320 302 304 312 325 324 324 324 324 324
321 322 320 320 319 316 318 319 320 320 322 321 318 302 303 310 326 324 325 326 326 324
320 320 319 319 316 315 316 316 317 318 321 323 317 301 302 317 325 324 324 326 325 324
320 320 318 318 316 315 315 316 316 317 321 314 319 300 303 316 323 321 322 322 321 311
319 318 319 317 316 315 314 315 315 314 315 319 317 312 299 306 322 320 320 320 319 321

GFSNIL_sfc_thetae_015.txt.gz
Theta_e
331 330 329 329 330 330 329 330 332 331 332 333 332 332 332 331 331 331 331 330 332 332
331 328 330 330 331 330 331 330 331 331 333 333 333 332 333 331 331 330 332 330 327 327
331 329 330 330 329 330 331 331 331 330 332 332 333 331 330 328 330 331 332 329 329 328
331 331 330 330 329 330 331 331 330 330 330 331 331 328 330 328 329 329 330 331 328 327
332 332 330 329 330 330 330 331 330 330 330 330 330 328 327 327 328 328 327 326 326 325
332 332 331 330 330 330 331 331 331 331 330 330 326 326 327 327 328 328 328 328 326 326
332 331 330 330 331 330 332 331 332 331 331 331 329 325 325 327 328 328 328 330 330 329
332 331 330 331 330 332 332 332 332 331 331 331 330 326 326 327 328 329 328 328 329 332
330 329 330 331 331 332 331 332 332 331 330 330 328 306 313 323 328 329 329 328 327 326
330 328 329 330 330 331 331 332 332 331 331 330 328 302 306 313 329 330 328 330 327 326
329 327 329 330 329 330 331 332 332 332 332 327 325 301 303 311 328 328 327 329 328 328
330 327 329 329 328 329 330 330 330 328 330 328 324 300 303 317 326 326 328 328 328 328
329 330 329 330 327 329 330 329 328 330 331 317 324 299 302 319 326 324 323 325 323 311
330 332 331 331 328 327 328 327 328 329 329 325 323 318 300 307 328 325 324 324 326 325

GFSNIL_sfc_thetae_021.txt.gz
Theta_e
338 335 336 336 334 337 335 337 336 336 337 336 336 336 337 342 339 337 338 335 336 339
338 336 336 336 337 335 336 333 335 336 336 335 335 336 336 337 335 335 336 336 337 337
337 337 337 335 334 336 334 333 334 335 336 335 335 336 337 336 335 334 335 334 331 333
336 336 336 334 333 334 334 333 332 332 334 334 334 335 334 334 333 331 330 329 327 331
336 337 336 335 336 334 333 332 331 330 330 332 332 333 332 330 331 330 328 326 328 328
336 337 335 335 336 333 332 331 332 331 330 331 331 330 331 331 330 331 331 327 325 325
336 335 334 335 335 332 332 331 331 331 332 333 332 331 330 331 330 331 332 332 329 326
335 335 334 334 334 335 332 335 331 333 332 332 333 330 330 332 333 332 333 331 329 331
333 332 333 334 334 335 334 334 333 333 331 332 329 310 313 319 335 334 332 331 329 329
331 331 331 332 332 333 334 336 335 334 333 332 330 310 311 311 334 335 334 332 328 330
331 331 330 331 332 334 339 336 337 335 334 332 326 305 304 306 335 335 333 334 334 333
331 331 332 333 334 338 338 338 335 335 334 332 329 303 303 313 335 333 332 332 334 333
331 332 332 335 336 337 339 337 335 333 334 321 329 303 301 317 333 329 333 332 325 309
334 333 335 336 337 338 337 336 333 332 334 333 329 321 304 306 332 332 331 329 327 326

GFSNIL_sfc_thetae_024.txt.gz
Theta_e
343 338 340 340 337 335 335 336 337 337 336 336 336 335 335 334 333 332 329 328 329 329
341 339 338 341 340 336 338 335 337 336 336 336 335 334 333 332 333 333 331 328 330 329
334 339 338 336 336 336 337 332 336 336 336 334 335 335 332 333 332 333 331 329 328 328
337 338 333 335 332 336 337 331 333 334 334 334 333 334 333 332 331 327 326 327 327 327
338 337 336 335 333 335 334 334 331 331 333 333 332 331 331 329 331 327 324 325 327 326
336 336 336 334 334 333 335 332 330 329 332 332 331 331 332 331 331 330 327 325 324 325
337 334 335 334 336 334 333 330 329 331 333 332 331 331 331 331 331 328 328 327 324 325
336 335 334 333 334 336 334 331 332 332 332 333 332 328 328 332 330 328 328 328 327 326
332 332 332 333 333 335 334 333 332 333 331 332 327 309 310 322 331 330 328 324 326 324
332 332 332 333 332 334 334 332 332 332 333 329 326 306 303 308 332 331 327 327 328 328
329 329 330 330 330 333 334 333 333 333 333 330 321 304 303 305 332 331 330 331 329 328
330 330 331 332 332 333 332 330 331 333 333 329 324 305 303 315 332 330 330 331 330 329
331 332 332 335 335 335 335 335 334 331 331 319 326 304 302 315 331 328 328 328 321 310
333 332 335 337 336 337 334 334 332 331 331 330 327 318 305 306 331 328 327 325 322 316

GFSNIL_sfc_thetae_027.txt.gz
Theta_e
327 326 327 326 325 324 323 325 325 327 327 328 330 330 328 326 325 326 324 322 322 322
328 327 327 326 326 325 325 325 328 327 327 328 328 329 327 325 326 324 326 325 325 324
328 328 327 325 325 325 325 327 327 327 328 327 328 328 327 325 327 323 323 323 323 324
325 327 326 326 328 324 324 329 326 327 328 328 327 326 326 326 326 323 322 322 322 323
328 326 326 325 328 324 323 324 325 328 329 328 326 324 328 325 326 323 323 323 321 322
327 326 325 324 328 326 325 327 324 327 327 327 326 328 328 327 327 326 324 322 322 321
326 326 325 325 325 328 328 325 327 328 327 328 327 328 328 328 327 326 326 324 323 323
326 326 325 325 325 329 327 328 329 328 327 326 324 322 322 329 326 324 322 322 324 326
328 326 325 324 324 326 325 328 328 324 325 321 321 305 307 320 325 325 322 322 323 322
329 328 326 326 325 324 323 326 326 324 322 319 314 302 302 310 325 322 321 323 325 323
328 327 328 327 324 324 323 325 323 324 321 317 314 302 301 309 324 322 324 323 323 323
328 327 327 326 323 324 324 324 323 324 320 317 314 303 302 318 324 323 324 326 324 325
326 327 325 324 324 325 326 324 326 325 322 315 315 304 301 318 327 323 321 322 321 311
326 329 327 326 327 326 324 324 324 323 323 320 316 313 302 309 325 323 321 321 320 317

GFSNIL_sfc_thetae_030.txt.gz
Theta_e
324 324 323 323 322 322 322 323 324 324 324 325 327 327 326 324 323 322 322 319 319 319
325 324 323 322 322 322 322 322 325 325 325 326 327 327 326 325 323 322 321 322 321 320
324 325 324 324 323 323 322 324 324 325 325 325 325 326 326 325 325 322 320 321 322 323
324 325 323 322 323 323 322 324 325 326 326 326 325 325 324 325 324 322 321 318 320 321
324 323 322 323 323 321 321 322 324 326 327 327 324 323 323 324 324 322 322 320 319 321
323 323 322 322 322 321 321 322 322 325 325 325 324 327 327 327 326 323 322 322 319 320
323 323 322 322 322 324 324 326 324 325 325 326 325 326 328 327 324 325 324 324 322 323
324 323 323 322 324 325 326 326 327 325 324 322 321 318 319 327 324 320 319 323 325 324
325 324 322 322 326 325 325 326 326 323 322 318 319 302 307 319 322 321 323 322 321 321
326 324 323 322 322 324 324 325 322 319 318 315 313 300 304 311 321 322 324 323 322 321
328 324 323 322 321 320 320 325 319 317 315 313 313 301 304 308 321 322 323 324 323 320
326 324 324 322 321 320 320 319 319 318 315 314 315 301 304 315 321 321 323 324 324 322
325 325 323 322 321 321 324 322 323 319 317 312 315 300 303 316 323 322 322 323 320 308
324 324 323 322 322 322 322 322 321 319 316 315 314 310 302 307 321 322 321 321 320 315

GFSNIL_sfc_thetae_033.txt.gz
Theta_e
322 322 321 321 321 321 321 321 322 322 321 322 323 323 323 323 323 321 320 318 318 316
322 322 321 321 321 321 320 322 322 323 323 323 325 324 324 324 325 324 321 320 319 318
322 322 321 321 320 320 320 322 322 322 322 323 324 324 323 324 324 322 319 319 321 318
322 322 322 321 321 321 320 323 322 324 324 324 323 323 323 323 323 321 320 317 319 319
322 321 320 320 321 320 321 322 323 324 325 325 323 322 322 323 323 321 321 318 318 319
320 320 320 321 320 319 320 320 321 324 324 324 322 323 326 324 324 322 321 321 318 322
320 320 320 320 319 319 320 321 323 323 324 324 323 323 324 326 325 323 322 323 322 323
321 321 321 320 320 322 324 325 326 323 323 321 319 315 317 325 321 320 321 322 324 323
325 322 321 320 323 322 325 326 326 321 320 317 317 303 308 317 320 323 323 321 321 321
323 322 321 320 321 324 322 324 322 317 317 315 312 300 304 309 320 324 323 322 320 319
323 322 321 319 319 318 320 322 317 315 314 314 311 301 302 308 324 323 323 322 321 320
323 321 320 319 318 317 318 317 315 315 313 313 315 301 302 314 322 322 322 322 322 321
322 322 321 319 318 318 318 318 318 315 313 310 316 300 301 314 323 321 321 320 318 307
321 322 322 319 319 319 320 320 317 316 313 313 313 311 301 306 322 321 321 319 317 312

GFSNIL_sfc_thetae_036.txt.gz
Theta_e
324 324 323 322 323 322 323 325 326 326 325 325 326 325 325 325 325 323 323 322 321 321
323 323 322 322 323 323 323 325 325 325 324 326 326 327 327 326 326 324 323 324 323 322
323 323 322 323 322 323 323 324 324 325 326 327 327 327 327 326 327 324 323 323 323 322
322 322 322 322 323 323 322 324 324 326 327 326 326 326 326 325 326 324 321 322 323 323
322 322 321 322 323 322 323 325 325 327 327 327 326 324 325 324 325 321 321 320 322 322
321 320 321 322 322 322 323 324 325 326 326 326 325 325 326 325 325 322 322 321 321 323
320 321 321 322 321 321 323 323 323 326 326 325 324 323 323 327 326 323 322 322 322 323
321 321 321 321 321 322 323 324 326 325 324 322 321 317 320 325 325 323 322 322 323 324
323 322 321 321 323 324 326 326 325 323 322 320 318 301 309 318 323 324 323 322 322 322
324 323 322 322 323 324 325 326 322 320 320 318 316 301 303 310 325 324 322 321 319 318
324 322 322 321 323 323 324 323 320 319 318 317 313 302 302 310 324 323 322 321 320 319
323 322 321 320 319 321 321 320 318 318 317 318 315 300 302 316 324 322 321 322 321 319
323 322 321 320 319 321 321 320 319 317 317 312 317 299 302 316 323 320 319 318 316 306
323 322 322 321 321 321 321 321 319 317 316 318 317 311 301 308 323 321 319 317 315 311

GFSNIL_sfc_thetae_039.txt.gz
Theta_e
341 339 338 339 337 336 336 337 340 339 339 338 337 336 336 334 333 334 328 332 332 329
338 338 336 338 338 337 339 337 338 338 337 337 336 336 336 334 335 334 326 327 333 331
337 337 336 337 337 337 337 336 336 335 335 335 336 337 337 335 335 332 326 329 332 332
334 335 336 336 336 336 336 335 334 334 335 336 335 335 335 335 333 332 326 325 330 330
335 335 335 334 335 334 333 334 334 335 334 334 333 334 332 332 331 327 323 323 323 326
333 334 334 334 333 333 334 334 334 334 333 332 332 331 332 330 327 324 322 323 321 326
332 333 333 333 333 334 334 333 333 333 332 332 331 331 331 332 328 324 324 323 325 327
332 333 333 332 332 333 333 332 332 333 331 331 332 325 330 330 328 325 323 323 323 328
331 331 331 331 331 331 331 332 332 332 330 331 326 304 309 322 328 326 324 324 325 324
331 330 329 331 331 332 330 330 331 331 330 328 323 303 303 312 328 326 324 322 321 319
331 330 329 330 331 330 331 329 332 330 330 325 319 301 302 310 327 325 323 321 321 319
331 330 329 329 331 333 331 329 330 329 329 323 322 301 302 318 325 323 322 322 321 321
330 330 329 330 332 333 334 331 328 326 329 315 324 300 301 318 324 320 319 321 320 305
331 331 331 331 332 333 331 330 328 326 329 323 322 318 300 308 324 321 319 319 317 313

GFSNIL_sfc_thetae_042.txt.gz
Theta_e
351 349 349 350 347 344 343 341 347 346 347 345 343 342 342 339 336 337 336 335 336 333
350 350 347 349 347 341 344 343 345 345 344 343 342 340 340 335 336 337 338 333 336 336
347 347 347 345 342 343 344 343 344 343 342 339 339 339 339 338 338 337 338 331 329 336
344 343 342 342 343 343 343 342 339 337 336 336 337 339 339 338 336 335 332 330 332 333
341 342 342 341 342 342 339 337 336 335 335 335 335 338 337 333 333 332 326 325 325 328
340 340 340 340 339 338 336 336 336 336 335 334 334 334 333 333 332 330 326 323 323 327
337 338 338 338 337 336 336 336 336 336 334 334 334 333 334 332 333 330 327 324 326 326
336 337 337 336 336 335 336 335 335 335 334 336 334 332 331 333 332 327 324 323 325 326
335 335 335 335 334 335 335 335 335 334 332 334 331 307 310 318 331 327 325 324 325 328
334 333 332 332 332 333 335 337 335 335 333 333 331 304 306 311 333 331 327 325 324 326
332 331 331 331 331 334 336 336 336 334 334 333 325 303 303 311 332 328 323 323 323 321
331 331 329 328 332 334 334 334 335 334 334 330 328 303 304 318 326 323 323 325 323 322
332 331 330 332 333 334 335 334 332 333 333 318 328 301 303 319 325 325 322 321 318 306
333 333 333 334 334 334 334 333 333 333 331 328 326 320 302 308 326 323 322 321 319 311

GFSNIL_sfc_thetae_045.txt.gz
Theta_e
357 349 351 351 349 346 346 347 353 351 348 345 344 344 344 342 340 343 336 337 336 337
352 357 351 359 358 349 350 347 348 347 345 344 343 343 343 339 338 339 341 337 337 337
354 355 353 353 353 352 351 345 344 342 343 342 342 341 342 340 342 339 341 339 332 336
348 349 349 346 344 345 345 343 341 341 341 338 337 339 342 339 337 335 337 335 330 332
346 344 345 343 343 343 342 341 338 337 335 334 335 339 337 335 335 334 333 328 327 329
343 342 343 342 342 340 339 337 336 335 334 335 336 336 336 333 333 333 334 329 324 328
340 340 340 339 339 338 337 335 335 336 335 333 332 332 334 334 335 334 331 326 323 324
338 338 337 337 337 336 336 336 336 336 335 335 335 331 335 333 333 332 325 324 324 327
334 335 336 337 336 335 336 336 336 336 335 335 330 307 312 322 331 329 326 322 325 327
333 333 333 334 332 335 336 338 336 334 335 333 331 305 307 313 333 330 326 325 326 327
331 331 333 332 333 337 337 338 338 335 335 332 325 306 307 311 332 329 325 325 325 327
331 330 329 331 335 335 336 338 337 335 334 331 328 305 307 318 327 325 323 323 324 324
331 330 329 333 334 335 336 336 335 334 334 321 328 303 307 318 328 323 321 322 319 309
331 330 331 334 336 336 335 335 335 331 331 330 327 323 305 309 327 326 323 318 317 310

GFSNIL_sfc_thetae_048.txt.gz
Theta_e
347 349 352 347 343 341 342 343 345 347 345 347 346 344 344 342 340 339 337 335 334 333
351 354 350 350 346 345 346 347 346 348 345 345 345 343 342 340 339 338 337 335 335 332
353 355 352 352 348 348 349 348 347 345 345 344 342 342 340 338 338 336 336 335 334 333
351 353 352 349 345 347 347 345 344 343 342 341 341 340 338 337 336 333 333 333 332 329
347 346 346 345 344 345 343 342 341 341 339 338 337 337 336 334 334 332 331 329 328 328
341 342 343 343 343 343 342 342 338 337 336 334 334 334 335 334 333 332 331 329 327 324
342 342 342 341 342 340 339 338 337 335 333 334 334 335 335 335 333 332 332 328 323 322
341 341 340 339 339 339 338 337 335 336 334 334 331 328 333 334 333 332 328 325 323 323
337 336 337 338 338 339 335 335 336 333 334 331 325 305 312 326 331 328 325 322 323 325
334 333 334 335 334 332 333 336 334 334 334 330 323 305 309 313 332 328 325 323 324 325
331 332 332 331 332 333 336 337 335 334 332 328 320 306 308 317 330 327 325 324 324 327
330 329 330 330 333 336 334 334 334 333 330 327 323 306 308 320 326 325 324 324 324 325
329 331 329 332 334 335 334 334 335 332 329 318 325 304 309 318 325 322 320 320 321 306
329 330 334 335 336 334 333 333 332 329 327 327 325 318 304 304 327 323 320 319 316 314

GFSNIL_sfc_thetae_051.txt.gz
Theta_e
334 338 338 341 338 337 336 335 338 342 341 341 340 338 338 334 332 331 329 327 325 324
335 336 340 338 338 337 337 338 340 343 340 339 338 336 333 332 331 330 328 327 326 325
339 344 342 339 336 338 339 339 339 340 339 337 335 334 332 330 330 328 327 327 326 325
342 345 344 340 339 340 341 340 340 338 336 334 333 332 330 328 329 328 327 327 327 326
342 345 342 341 341 340 339 338 338 336 335 334 332 330 329 327 328 326 325 324 326 325
339 338 337 336 338 337 334 333 333 334 333 332 331 329 330 330 328 327 326 325 323 323
338 337 336 333 332 333 334 329 329 328 330 332 332 331 332 329 327 326 326 323 322 321
336 335 332 331 329 330 328 328 329 331 330 327 327 326 327 328 326 325 321 320 320 321
333 331 329 329 328 329 327 328 330 327 325 322 320 306 312 322 323 323 323 318 321 323
331 330 329 329 328 326 326 329 328 327 322 317 312 306 310 316 323 320 321 322 321 322
329 328 328 326 327 328 328 326 329 325 321 316 315 306 309 317 323 320 320 320 322 319
327 325 328 327 328 328 324 325 325 324 319 317 315 306 309 320 322 320 319 322 319 319
329 328 327 328 327 324 325 326 327 323 322 314 315 303 305 317 320 319 319 319 316 302
328 328 328 328 324 324 324 325 323 322 323 319 315 310 303 308 319 317 318 317 316 311

GFSNIL_sfc_thetae_054.txt.gz
Theta_e
329 330 330 334 337 337 337 336 336 337 337 337 339 339 334 333 333 329 328 325 322 321
330 330 332 336 337 336 334 336 336 337 335 337 339 335 334 334 332 328 326 324 323 322
331 333 336 337 335 335 335 336 336 337 336 335 337 333 331 329 328 327 324 324 323 322
332 337 337 336 335 336 336 336 337 337 336 334 332 330 328 328 327 326 323 323 324 323
338 339 336 335 335 337 336 338 338 337 336 334 333 329 327 326 327 325 323 323 323 323
339 340 337 337 339 339 338 337 336 336 335 332 330 328 328 326 326 324 324 323 322 322
336 337 337 338 337 336 336 336 333 332 331 331 329 329 328 328 325 324 324 323 322 321
333 334 332 332 333 333 332 331 327 327 328 328 328 327 326 326 324 322 320 320 320 321
333 333 331 328 328 328 327 328 326 324 324 322 320 305 312 320 322 321 319 317 320 321
332 330 329 328 325 324 324 324 322 321 319 317 314 304 307 311 320 319 321 321 320 321
330 328 327 325 323 323 326 325 323 319 316 315 313 303 305 310 318 317 318 321 321 322
328 326 324 324 323 326 326 323 319 317 316 315 315 303 306 317 321 317 317 319 317 318
327 325 324 325 326 326 325 322 320 318 316 310 314 302 305 314 319 318 319 316 313 304
326 325 326 326 325 324 324 322 320 318 315 314 313 309 304 307 317 319 318 317 316 311

GFSNIL_sfc_thetae_057.txt.gz
Theta_e
326 325 323 324 328 330 332 334 337 338 336 336 336 335 333 334 332 331 328 324 322 321
324 323 324 326 331 333 333 335 336 336 336 336 336 335 334 332 330 331 329 324 322 321
324 325 326 331 332 333 331 335 335 334 334 334 334 334 334 329 331 329 324 323 322 320
324 327 330 332 333 333 334 334 335 335 334 333 333 334 331 327 327 325 323 322 322 321
327 330 331 332 333 333 334 335 336 335 335 335 333 331 328 327 327 325 322 321 321 321
331 332 332 332 333 334 334 335 336 336 335 334 332 328 327 328 326 324 322 321 321 321
334 333 332 333 335 335 336 335 335 335 334 333 331 329 327 324 323 322 322 321 321 321
336 335 335 335 336 337 336 334 334 332 331 330 327 327 325 324 322 321 320 319 320 320
334 335 334 333 333 333 329 329 328 327 325 322 321 306 309 319 321 320 318 318 317 318
330 329 329 330 329 328 327 325 322 321 320 316 315 302 304 309 320 319 318 318 320 321
329 328 327 327 326 325 324 322 318 317 316 316 312 301 302 308 317 316 316 320 321 321
329 326 325 324 325 324 320 318 317 317 316 317 314 301 301 312 315 315 316 320 320 321
328 326 324 323 323 321 320 318 319 315 316 312 315 300 301 312 317 317 318 317 316 303
327 325 324 323 324 322 321 317 315 315 315 316 314 310 300 304 315 317 318 317 315 311

GFSNIL_sfc_thetae_060.txt.gz
Theta_e
330 333 332 330 326 326 327 331 336 337 338 338 339 338 337 336 335 334 332 330 328 328
328 329 327 324 326 326 331 333 336 338 338 338 339 338 336 335 335 333 331 329 329 328
325 326 325 324 327 330 332 336 336 337 338 338 338 337 335 335 333 332 331 329 327 326
322 324 325 327 329 332 333 336 336 337 337 337 336 335 335 334 332 331 328 327 327 326
322 325 326 329 331 333 334 336 337 337 337 337 336 334 334 331 330 329 327 326 326 325
323 326 327 329 332 333 334 336 337 337 336 335 335 333 332 331 330 329 328 327 326 326
324 327 329 331 332 334 336 336 336 337 337 335 334 333 331 330 329 328 327 326 326 326
329 330 332 333 334 335 336 336 337 335 335 335 334 331 329 329 327 326 325 325 324 325
333 333 334 334 334 334 335 334 335 335 333 331 327 307 310 322 326 325 324 323 323 324
332 333 331 333 333 333 331 332 330 328 326 323 318 302 304 309 326 324 323 322 322 323
332 332 331 332 331 328 328 327 324 322 321 319 312 301 301 308 323 323 322 322 323 323
331 330 329 327 326 325 323 322 321 320 319 318 313 300 301 314 320 320 321 323 323 323
329 328 327 325 324 323 322 319 320 318 320 312 315 298 300 314 320 319 320 320 318 305
327 326 326 324 322 321 319 318 316 316 318 319 316 308 299 303 320 319 318 318 318 317

GFSNIL_sfc_thetae_066.txt.gz
Theta_e
331 330 332 338 336 334 338 342 355 358 360 359 356 356 355 353 350 352 349 351 351 346
331 332 333 343 349 340 348 343 348 353 355 356 356 355 354 348 350 351 351 352 352 347
330 331 334 337 343 346 350 349 350 350 353 354 353 352 353 352 353 352 351 350 350 348
331 332 334 336 339 343 350 347 345 347 350 350 350 352 354 355 353 352 352 351 348 346
332 333 334 337 339 342 343 345 345 346 348 348 348 353 354 353 352 351 349 346 345 343
328 332 333 340 343 342 341 344 347 347 346 346 348 352 353 352 350 349 346 345 344 344
325 329 332 337 343 342 341 344 346 346 346 346 348 350 351 350 349 347 346 347 347 344
325 328 330 333 343 342 341 345 346 346 345 347 348 348 349 348 348 346 345 346 343 344
324 326 329 333 342 340 341 345 345 345 345 348 346 313 318 339 345 345 342 342 341 340
324 326 327 331 340 339 346 349 346 346 347 348 347 310 313 318 345 343 342 341 339 337
323 326 324 332 338 343 345 349 350 349 348 348 341 307 308 313 344 342 340 340 340 339
323 324 323 331 336 339 340 345 349 348 348 347 329 303 307 322 339 338 338 339 338 337
325 323 327 333 333 336 340 342 345 344 344 327 329 300 305 320 335 336 335 335 333 308
324 322 330 334 336 337 336 337 337 336 336 332 325 317 302 308 335 334 332 331 329 330

GFSNIL_sfc_thetae_069.txt.gz
Theta_e
335 329 331 337 334 334 336 339 351 365 362 365 364 362 365 359 358 359 355 358 353 348
333 336 334 341 344 336 344 341 344 355 361 361 362 365 365 357 358 358 357 355 358 352
332 333 336 339 341 343 346 349 352 352 353 358 360 363 364 358 358 355 353 351 355 355
328 331 334 338 339 342 346 348 348 350 352 353 357 361 361 357 353 354 355 355 355 352
325 328 335 336 338 343 344 346 345 346 347 349 352 358 356 353 349 353 352 351 353 350
326 329 333 335 338 337 343 344 343 343 346 346 349 353 354 352 351 353 353 352 349 347
325 327 330 333 335 335 337 342 341 345 344 347 349 350 352 352 355 355 353 354 351 347
322 324 326 330 332 335 336 343 340 342 344 351 351 348 353 354 355 354 350 351 347 349
316 319 324 329 331 335 334 344 341 344 347 351 347 320 322 343 354 350 347 346 346 345
316 317 320 326 328 333 335 344 346 348 352 352 353 312 313 320 352 348 347 348 345 342
315 316 320 326 330 334 336 342 345 350 351 353 349 308 311 316 351 348 347 345 344 342
315 317 321 325 330 330 336 341 345 349 349 350 339 305 310 327 346 343 342 341 340 339
316 320 323 328 329 328 337 342 347 348 350 334 340 303 309 324 341 340 336 338 332 310
321 324 327 330 326 329 339 341 345 342 342 343 336 324 305 306 339 335 334 333 333 332

GFSNIL_sfc_thetae_072.txt.gz
Theta_e
333 333 333 332 331 331 331 333 340 352 348 347 348 348 351 352 352 353 351 351 352 347
337 337 332 334 336 333 336 336 340 339 344 357 355 355 354 353 354 355 355 353 352 351
335 337 336 337 337 336 337 338 339 340 344 356 355 356 356 356 356 354 354 353 350 349
331 333 336 336 338 338 339 340 339 339 341 342 347 353 354 354 354 352 352 350 348 347
330 331 332 332 333 338 338 339 339 339 341 342 345 347 348 350 354 351 349 347 346 348
325 330 331 331 333 333 333 336 336 340 339 340 342 346 350 352 353 348 347 348 347 348
324 325 323 325 327 329 331 331 333 334 340 338 341 342 348 352 351 347 348 349 349 348
321 321 321 320 321 324 327 330 332 333 337 339 340 343 344 349 349 346 347 348 350 347
316 316 317 319 320 323 325 327 329 331 336 339 339 324 320 340 348 347 346 345 345 340
314 314 315 316 318 319 322 327 329 332 336 338 339 317 312 321 347 347 346 345 344 339
312 313 314 315 316 318 323 327 330 332 336 338 340 308 309 316 347 346 346 345 343 341
310 311 312 314 316 319 323 326 330 331 335 338 341 304 307 327 344 343 343 343 342 340
310 309 311 314 316 320 324 328 330 329 334 332 341 306 307 328 342 340 339 339 329 314
309 309 310 315 319 323 326 328 329 331 335 340 337 322 307 313 340 339 336 333 332 323

GFSNIL_sfc_thetae_075.txt.gz
Theta_e
323 326 328 328 326 325 326 326 329 334 343 343 343 342 342 339 337 339 342 342 338 335
324 323 322 323 324 331 329 330 330 332 335 340 343 341 340 338 337 341 344 344 344 342
322 325 324 325 325 326 328 331 331 331 330 333 336 348 350 348 348 346 349 350 349 348
315 320 324 326 327 328 329 330 332 333 334 333 333 337 349 350 350 348 349 350 348 346
315 316 318 319 321 323 324 329 331 334 333 334 335 334 336 344 349 347 347 347 346 344
312 314 318 318 320 323 324 324 326 329 331 332 335 335 336 340 341 343 348 347 344 343
310 313 312 314 315 318 321 322 322 324 327 329 330 334 336 337 343 343 346 346 344 343
311 312 312 313 313 314 316 317 320 321 323 327 329 331 334 336 337 344 344 342 345 343
309 310 310 310 311 312 313 315 319 322 322 323 326 318 316 320 337 343 343 341 343 340
309 309 309 309 308 309 310 311 313 316 319 322 326 314 312 314 324 339 342 339 337 334
307 307 306 306 307 307 308 310 312 314 318 324 327 313 310 311 322 337 339 339 338 333
307 306 306 305 305 305 306 308 311 314 318 323 327 313 310 310 323 334 338 338 337 335
306 306 305 305 304 306 308 310 312 315 317 320 324 314 307 308 326 334 335 333 330 317
305 305 305 305 305 305 305 309 313 317 322 323 323 326 309 303 326 335 331 328 323 320

GFSNIL_sfc_thetae_078.txt.gz
Theta_e
318 320 322 322 322 321 321 322 325 330 340 339 339 339 339 338 338 338 338 338 339 339
317 318 318 319 321 322 325 327 328 328 331 336 339 340 339 338 337 338 338 338 338 340
317 319 320 320 320 321 323 325 326 328 327 328 331 332 338 338 338 337 338 338 338 338
316 319 320 322 324 324 325 328 329 330 331 330 330 331 331 334 340 340 337 340 343 344
310 310 312 314 317 318 319 322 325 326 329 330 331 330 332 332 333 336 342 342 344 345
312 312 311 315 315 314 315 315 318 320 321 324 327 328 329 331 333 334 337 342 344 344
308 309 310 310 311 312 313 313 314 315 318 320 320 322 326 328 329 332 336 339 342 344
307 311 311 310 309 310 311 312 313 314 315 316 319 323 324 325 326 328 332 338 342 344
308 308 308 308 308 308 309 310 311 311 313 313 317 310 309 313 321 325 327 330 338 342
308 307 307 307 307 306 306 306 306 308 310 311 312 306 305 309 320 325 326 328 334 339
306 306 305 304 304 303 303 303 303 306 308 310 312 306 304 306 318 323 325 327 333 337
306 304 304 303 302 302 302 303 304 305 305 307 308 305 305 308 322 325 325 328 333 337
306 304 303 302 301 302 303 304 305 306 307 307 310 307 304 307 320 321 323 325 333 312
303 303 303 303 302 302 303 304 304 304 305 308 311 313 304 302 316 321 323 328 329 327

GFSNIL_sfc_thetae_081.txt.gz
Theta_e
317 317 317 318 318 318 317 318 321 323 333 335 336 336 336 335 333 334 335 334 336 336
314 315 317 318 319 320 319 324 326 325 326 331 336 337 334 334 332 334 335 335 336 336
314 316 317 316 316 317 318 320 322 324 325 325 328 328 327 330 335 334 335 336 335 335
313 314 316 317 318 319 320 323 325 326 328 328 328 328 328 327 330 333 333 334 335 335
313 314 315 316 318 320 319 319 322 320 320 321 323 325 327 328 330 329 329 334 338 338
307 307 308 310 313 316 315 313 313 314 314 316 318 319 320 323 324 327 329 331 333 338
308 309 309 311 312 310 311 310 310 311 313 316 316 316 317 319 322 324 327 330 332 335
308 308 308 308 308 309 309 309 309 310 311 313 314 315 314 318 318 317 318 322 327 331
305 307 308 308 307 307 308 307 308 308 309 308 313 307 306 309 310 313 316 318 323 326
306 307 306 306 306 305 304 304 304 304 305 305 306 303 302 305 309 312 314 318 322 325
306 306 306 305 304 303 302 302 301 302 303 303 306 302 300 301 307 310 313 318 322 324
305 304 304 303 302 301 300 300 300 302 302 301 303 301 299 301 306 309 314 320 324 324
305 305 304 303 301 300 300 301 302 303 302 302 302 299 299 301 308 311 315 317 320 311
305 304 303 301 300 300 300 301 301 302 303 303 303 305 300 300 306 309 313 317 319 321

GFSNIL_sfc_thetae_084.txt.gz
Theta_e
315 315 316 317 318 320 320 322 326 328 335 337 338 338 338 338 336 335 335 336 336 334
316 317 318 319 320 320 321 322 324 327 328 330 337 338 337 335 335 335 335 336 337 336
314 316 317 318 319 320 321 324 325 326 328 329 330 332 331 331 334 335 336 337 337 337
314 316 317 318 319 319 321 323 326 328 330 328 328 328 329 330 331 333 334 336 337 337
314 314 316 317 318 321 323 325 326 325 322 322 323 324 324 324 326 328 328 331 333 336
312 313 315 316 318 321 321 321 320 318 316 317 318 319 320 321 322 325 327 330 331 333
310 310 311 313 314 317 319 316 314 315 315 316 317 317 317 319 321 323 326 327 328 327
310 310 310 311 313 315 314 313 313 313 314 316 316 314 316 318 320 319 318 319 321 325
308 309 309 310 311 311 311 311 311 312 313 312 313 307 306 311 314 315 316 316 319 322
308 308 309 310 309 309 308 308 309 309 310 310 310 303 301 303 313 313 314 315 316 317
307 307 308 308 308 307 307 306 307 307 308 307 308 301 299 300 310 311 313 314 314 315
306 306 307 306 306 306 305 304 305 306 307 306 306 300 298 301 308 309 310 312 314 319
305 305 305 305 305 305 304 305 305 305 305 304 305 298 297 300 307 308 311 315 318 308
302 304 305 305 305 305 304 304 303 304 305 306 306 305 297 298 308 308 308 308 310 316

GFSNIL_sfc_thetae_087.txt.gz
Theta_e
344 343 342 342 341 341 341 342 346 346 347 347 347 346 347 343 342 342 342 340 340 336
329 331 330 333 335 334 336 335 335 337 339 342 345 347 347 344 345 345 345 343 344 341
327 328 330 331 331 333 333 334 335 335 337 338 341 343 343 341 342 343 343 342 344 344
325 326 328 330 331 332 333 334 334 334 336 338 337 337 337 336 335 335 334 336 337 338
323 326 327 330 331 332 332 333 334 336 335 331 329 329 327 324 325 324 326 329 332 334
320 323 326 329 331 331 333 335 335 333 329 325 324 324 323 321 321 322 324 326 327 326
320 322 323 327 329 331 333 333 332 329 325 322 321 319 320 320 321 320 320 322 323 322
319 320 320 322 326 329 331 331 329 325 322 322 321 318 320 321 320 320 318 320 319 321
314 315 316 320 321 324 327 328 325 323 321 321 318 307 308 316 319 317 317 317 317 320
312 313 314 316 317 320 323 325 323 321 321 321 321 302 302 305 317 317 317 317 317 317
308 309 313 315 316 319 321 321 320 320 320 320 319 302 299 301 317 316 316 317 318 318
307 309 310 312 315 318 319 318 318 318 318 318 318 299 298 304 314 314 315 315 317 317
308 308 308 311 313 315 316 316 316 316 317 313 317 300 297 302 312 312 312 315 317 306
306 307 308 310 311 312 313 313 314 314 315 315 313 314 297 297 312 311 311 311 312 314

GFSNIL_sfc_thetae_090.txt.gz
Theta_e
348 348 349 353 349 348 348 357 359 357 357 356 356 355 356 353 352 349 345 344 341 333
345 349 349 355 354 350 357 350 352 354 353 353 353 353 353 349 350 350 349 346 344 338
343 346 347 348 348 347 347 345 345 346 348 350 350 351 351 349 350 349 349 345 346 345
334 334 335 334 334 336 338 337 336 338 339 340 343 346 347 346 344 344 346 346 343 343
328 329 332 332 332 334 334 335 333 334 335 336 338 342 340 339 337 337 336 337 337 337
327 327 331 332 334 334 332 332 331 332 333 333 334 333 330 327 327 328 329 329 331 331
321 325 328 331 332 333 333 332 332 333 332 330 327 325 323 322 324 323 323 323 324 322
321 321 324 328 330 331 332 330 329 327 326 325 324 319 321 323 324 323 321 323 321 322
318 319 320 321 326 329 330 332 330 327 325 325 321 306 310 320 324 324 322 322 321 322
315 316 317 319 320 325 328 329 332 330 327 326 326 303 305 308 324 324 323 323 322 320
311 312 314 315 319 323 327 328 332 330 329 327 325 302 301 304 321 322 322 322 322 323
311 311 312 310 315 320 322 325 327 328 328 327 326 300 299 307 319 319 320 321 322 321
309 310 311 312 314 320 321 322 324 325 327 319 325 299 298 305 316 317 317 321 321 307
311 312 312 315 315 314 318 320 321 322 324 324 322 319 297 298 316 315 315 316 317 318

GFSNIL_sfc_thetae_093.txt.gz
Theta_e
342 338 346 351 351 350 350 353 358 357 356 357 355 354 356 354 353 354 351 352 349 342
339 344 342 350 352 350 349 350 356 356 354 351 342 345 349 350 354 355 353 351 351 346
336 341 345 351 349 348 350 348 344 352 343 338 323 324 337 348 352 354 349 348 352 349
334 337 343 345 348 349 348 345 342 343 347 339 324 325 341 343 348 346 348 349 346 347
327 334 338 341 342 344 341 344 340 339 339 342 342 345 343 342 341 341 341 343 344 343
325 329 332 333 334 334 335 335 333 334 334 333 336 339 339 337 335 338 337 338 338 337
322 325 330 331 333 333 331 330 330 333 330 332 333 333 333 331 331 331 330 331 330 329
320 319 322 327 331 333 329 331 330 330 330 331 331 327 326 326 326 327 325 325 322 325
315 314 316 321 325 328 329 330 328 329 328 330 324 306 311 323 326 324 323 323 323 323
318 313 313 315 318 323 328 331 329 330 327 330 327 305 307 313 327 327 327 326 326 323
315 315 314 314 314 320 325 328 330 329 331 331 327 302 303 308 332 329 327 327 326 326
312 315 315 315 314 314 318 324 326 328 328 329 329 301 301 311 325 324 324 323 324 324
312 312 314 317 316 314 317 318 322 326 326 320 325 302 299 310 317 323 320 326 326 309
313 313 315 317 318 317 315 317 320 322 324 329 328 315 301 300 320 317 318 317 319 320

GFSNIL_sfc_thetae_096.txt.gz
Theta_e
333 331 332 334 336 339 339 341 350 351 351 352 352 352 345 345 346 348 346 343 343 342
334 333 332 334 337 337 344 343 342 343 347 348 349 350 349 341 323 323 341 344 344 341
327 331 333 333 334 337 339 344 345 343 331 327 324 329 326 325 322 324 322 331 339 340
327 327 329 331 335 336 339 342 342 338 333 330 324 327 326 322 321 320 320 323 332 337
326 328 327 327 328 331 329 337 342 331 323 323 324 323 324 319 322 321 320 321 329 338
326 324 324 322 324 322 328 334 340 329 326 321 323 321 322 324 326 325 329 333 335 335
321 322 322 321 319 321 320 325 332 328 325 323 324 323 323 324 327 331 329 334 336 333
320 322 320 320 320 318 315 318 325 331 326 323 330 327 323 329 329 327 324 325 324 324
313 319 320 319 319 317 315 315 319 325 325 329 329 310 315 323 324 324 323 321 322 319
314 313 318 318 317 315 315 316 318 321 320 321 318 306 309 317 325 324 324 325 325 321
312 312 314 318 316 316 316 316 316 320 317 317 323 304 305 312 327 327 327 327 326 324
310 310 312 316 316 316 314 316 319 320 321 322 314 301 302 313 327 326 326 326 325 325
309 310 309 315 317 318 317 315 317 321 324 318 325 301 298 313 322 323 322 324 325 309
307 307 310 312 317 318 317 317 315 317 322 324 322 316 301 299 318 319 320 320 321 322

GFSNIL_sfc_thetae_099.txt.gz
Theta_e
321 321 320 322 324 326 327 329 330 331 336 342 344 344 346 343 341 343 344 342 339 337
321 318 321 322 323 324 328 330 332 335 335 337 342 342 341 340 339 325 324 337 328 327
316 317 321 319 322 324 326 329 330 332 334 336 330 333 330 329 324 323 323 325 325 327
316 319 319 320 320 323 323 323 323 324 329 333 328 329 331 330 324 323 320 323 324 325
316 317 317 317 315 317 317 321 319 321 322 327 330 325 327 322 322 319 319 320 322 323
310 315 314 315 314 315 314 314 318 317 315 319 326 323 323 323 321 320 319 321 321 322
309 311 313 314 314 314 314 313 313 315 316 316 323 323 323 322 320 320 321 322 322 323
310 311 312 314 314 315 313 313 315 317 317 320 323 323 321 322 321 322 322 323 324 328
307 309 308 311 314 313 312 311 315 318 320 317 322 313 311 319 321 322 320 320 322 318
305 307 308 308 312 311 309 309 311 314 318 317 317 307 308 311 323 324 322 320 316 315
303 304 306 306 309 309 309 308 310 313 314 315 317 309 305 309 321 319 319 317 316 316
302 301 303 302 306 308 308 308 311 315 314 317 317 304 306 309 319 318 319 319 319 318
300 300 300 301 303 306 310 310 311 313 317 312 315 305 304 306 320 317 316 316 316 310
299 299 301 304 304 306 307 310 309 311 315 317 317 312 302 303 317 316 314 314 314 312

GFSNIL_sfc_thetae_102.txt.gz
Theta_e
314 316 318 318 319 320 319 320 324 326 328 329 330 333 336 339 338 339 337 337 335 335
318 317 314 315 319 317 319 323 323 325 326 328 331 334 335 334 334 335 329 324 326 326
315 314 314 316 316 317 318 320 320 320 320 321 322 325 330 330 326 327 325 325 325 325
312 314 316 316 318 314 315 316 317 319 319 317 317 321 324 327 328 325 325 325 323 324
311 313 315 316 316 314 313 314 313 316 316 316 316 316 320 325 327 327 325 321 320 321
306 307 310 313 314 313 313 312 312 315 313 315 315 316 317 321 324 325 326 323 320 321
302 304 306 310 312 314 314 312 311 312 313 315 316 316 317 318 321 324 321 321 321 321
302 303 304 307 309 312 315 313 313 314 314 316 318 319 318 319 321 321 319 320 320 321
301 301 301 303 305 308 313 312 310 312 314 315 319 308 307 311 320 321 319 319 319 321
300 300 300 301 303 307 310 310 308 308 313 314 316 305 304 308 321 321 320 320 318 320
298 299 300 300 301 302 308 309 308 307 312 312 315 307 307 307 317 316 318 318 316 316
298 297 297 299 301 302 304 306 306 309 311 313 314 303 303 307 316 317 314 320 317 316
297 298 296 298 299 300 301 303 306 309 312 311 312 302 302 305 312 315 317 316 315 307
295 295 296 298 298 301 301 306 306 307 311 312 311 310 299 299 313 313 315 314 313 311

GFSNIL_sfc_thetae_105.txt.gz
Theta_e
311 312 313 314 316 316 317 316 318 320 321 321 324 326 328 329 331 333 332 332 334 335
310 311 314 316 315 317 316 318 319 320 318 319 319 320 321 323 325 328 328 330 332 333
311 314 314 311 313 314 316 316 318 316 316 316 317 317 316 318 322 324 326 327 326 328
308 309 311 311 314 315 313 314 315 314 315 315 314 313 314 316 320 322 323 325 325 325
303 304 305 308 312 315 312 313 313 313 313 314 314 312 312 312 316 316 317 320 323 325
300 301 302 304 306 309 312 313 313 312 313 313 313 312 312 314 315 314 315 316 319 323
299 299 300 301 303 307 309 310 312 313 313 312 313 314 314 315 315 316 317 317 318 321
301 301 301 301 301 302 304 307 309 312 313 313 313 315 317 314 314 313 314 317 319 321
299 300 300 300 300 300 301 303 306 309 312 312 314 308 305 306 310 313 312 315 319 321
296 296 297 298 298 299 300 301 304 308 309 309 310 304 303 304 310 314 314 318 319 320
295 295 296 297 298 299 298 299 301 305 307 308 310 304 301 303 312 313 315 318 319 320
294 294 296 295 296 297 299 301 302 304 304 306 309 303 300 302 313 314 314 319 317 315
294 294 294 294 294 296 298 298 299 300 302 305 308 302 300 301 313 313 313 316 317 308
294 294 294 294 295 295 298 297 298 301 303 305 307 308 300 299 312 313 312 315 314 312

GFSNIL_sfc_thetae_111.txt.gz
Theta_e
323 321 323 324 324 323 324 326 333 335 334 332 332 331 332 329 328 330 329 331 331 329
319 320 321 323 325 324 326 326 328 331 332 331 332 331 331 326 327 328 328 329 330 328
313 314 315 316 316 318 322 324 326 328 329 330 330 330 329 326 327 326 324 324 326 327
311 312 312 312 313 314 315 316 315 318 323 326 327 327 326 326 325 323 324 325 324 324
310 310 310 310 311 312 312 313 313 313 314 315 317 323 324 323 322 321 321 322 322 321
307 307 308 308 309 309 309 310 310 311 311 311 313 314 317 319 322 322 322 321 320 320
305 305 305 305 306 306 307 307 308 309 309 309 310 311 313 314 317 320 322 324 322 321
303 304 304 304 304 305 304 305 305 305 306 308 308 308 308 310 313 317 319 322 322 324
302 302 302 302 303 303 303 303 303 303 304 305 305 302 302 306 307 311 315 318 320 322
300 300 301 300 301 300 300 301 300 302 303 303 304 300 299 301 306 310 313 315 318 318
297 297 297 298 298 298 298 298 299 299 301 300 302 299 298 300 307 309 311 315 315 318
295 295 296 296 296 297 297 296 297 297 298 300 301 298 297 299 303 307 309 314 317 320
295 295 294 295 295 296 296 295 296 296 297 299 300 299 297 299 304 305 308 316 318 307
295 295 296 296 296 297 297 296 296 296 298 299 301 303 297 297 303 305 308 312 316 314

GFSNIL_sfc_thetae_117.txt.gz
Theta_e
333 331 332 335 334 332 331 332 345 338 338 339 339 343 346 339 339 340 339 339 337 329
327 327 327 328 329 325 335 329 332 333 335 337 338 340 343 338 340 341 340 338 338 336
323 323 323 324 325 326 327 326 326 327 328 331 333 337 341 337 339 339 336 336 336 334
319 319 321 321 322 322 325 323 322 322 323 324 327 330 332 334 337 336 335 335 334 333
317 318 320 318 321 320 320 320 319 319 319 319 320 324 325 325 325 327 330 331 332 330
315 316 317 317 318 318 318 317 318 317 317 317 318 319 320 320 320 322 323 325 327 328
314 315 315 316 316 316 316 316 316 316 315 315 316 316 316 317 319 320 320 322 323 323
312 313 314 314 314 313 312 311 311 311 310 312 312 311 313 311 311 313 314 315 314 315
311 312 311 310 309 309 309 309 308 306 306 306 306 303 303 305 307 308 308 308 310 312
310 307 306 306 305 304 305 306 305 305 304 303 304 300 299 301 304 305 305 306 307 307
306 305 304 303 303 303 303 302 302 303 303 303 303 299 297 298 302 302 303 306 306 309
304 302 302 301 302 303 302 303 303 304 303 303 303 299 297 298 301 301 302 304 305 308
303 303 302 302 302 303 304 304 303 303 304 303 303 300 297 298 301 299 300 304 305 304
303 304 304 303 302 305 304 301 302 303 304 305 305 304 298 297 300 300 300 304 306 308

GFSNIL_sfc_thetae_120.txt.gz
Theta_e
332 337 330 333 331 331 331 333 340 339 339 339 340 341 343 343 339 337 336 335 333 330
332 331 330 329 329 328 329 326 328 330 330 333 334 336 338 335 333 335 336 334 334 334
324 325 326 327 327 328 328 328 327 327 328 328 329 329 329 328 330 332 332 332 332 332
322 322 324 324 324 323 323 321 321 321 321 320 321 323 323 324 325 323 323 326 329 328
320 322 322 322 322 323 321 321 319 319 318 318 318 319 318 318 318 318 317 318 319 319
320 320 320 319 320 319 318 317 317 317 316 315 316 316 317 317 316 316 317 317 317 317
316 317 318 318 317 316 315 313 312 312 312 312 311 312 312 312 311 309 310 312 314 315
314 315 315 314 312 312 311 310 309 308 308 308 308 307 306 305 304 305 306 307 309 310
312 311 311 309 308 308 307 307 306 306 305 305 305 302 302 303 302 302 302 302 304 306
309 308 307 307 306 305 305 305 304 304 304 303 304 300 299 301 301 300 300 300 300 300
305 305 305 306 305 304 303 303 303 304 304 304 304 300 298 299 301 301 300 301 301 301
302 302 304 303 304 304 304 303 303 304 303 303 303 300 298 298 301 300 300 302 302 302
302 303 302 303 303 304 304 303 304 304 304 304 304 302 298 299 301 300 300 301 302 302
302 302 302 304 304 301 302 304 305 304 305 306 305 306 298 298 302 301 300 300 301 302

GFSNIL_sfc_thetae_123.txt.gz
Theta_e
322 322 321 319 321 321 319 321 321 322 322 324 327 329 329 329 330 331 329 328 328 328
317 317 317 318 318 319 320 320 320 320 319 321 322 322 322 322 324 327 326 327 328 328
313 313 314 313 313 313 313 313 314 315 315 315 316 317 317 318 319 318 320 324 324 325
310 311 312 312 312 313 313 313 313 314 313 313 313 313 313 313 315 315 315 317 318 318
309 310 310 310 311 312 310 311 312 312 312 312 312 311 311 311 311 311 311 312 312 313
308 306 307 308 309 309 308 307 307 308 308 308 308 307 307 307 307 304 304 305 306 307
305 306 306 306 305 305 305 304 304 304 305 305 305 305 305 305 302 302 302 303 304 305
305 306 304 304 303 303 303 303 303 302 302 302 303 304 302 301 301 300 299 300 301 302
304 304 302 301 301 300 300 300 300 300 300 299 302 301 302 303 300 299 299 298 300 301
302 301 300 301 300 299 298 297 298 298 298 299 299 300 299 301 300 299 298 300 300 300
299 299 299 299 298 298 297 297 297 298 299 299 301 300 298 299 300 299 299 300 300 300
298 298 298 297 297 297 297 298 299 300 301 302 300 299 298 298 301 300 301 302 301 301
299 299 299 299 297 297 298 300 301 301 301 302 303 300 298 299 301 300 300 300 301 301
299 299 299 296 299 301 302 301 299 299 302 303 304 304 299 298 301 301 301 301 301 302

GFSNIL_sfc_thetae_126.txt.gz
Theta_e
319 316 317 318 318 316 316 318 319 319 321 321 322 322 321 321 322 324 324 325 325 325
317 314 313 314 314 313 312 316 314 314 314 315 315 315 315 315 316 317 318 320 322 323
315 314 312 312 312 312 312 313 313 313 313 313 314 312 311 310 312 312 313 315 314 315
310 310 312 310 311 309 309 309 310 310 310 310 309 308 306 307 309 308 308 307 307 308
307 307 306 307 308 307 306 306 306 306 306 307 306 305 304 305 305 305 302 302 302 303
304 305 304 304 304 304 304 303 303 303 303 304 304 304 303 303 304 301 301 301 301 301
303 302 301 301 302 302 302 301 301 301 302 302 302 302 302 302 300 299 300 300 300 300
302 301 301 300 300 301 301 300 300 300 300 300 301 302 300 300 299 298 299 299 299 300
300 300 299 299 299 299 298 297 298 298 298 298 300 301 302 303 300 299 298 297 298 299
298 298 298 299 298 297 297 296 297 297 297 298 298 299 299 301 300 299 298 298 298 299
297 297 297 296 296 296 296 296 296 297 297 297 300 300 298 299 300 299 299 299 299 299
295 297 299 296 295 295 295 296 296 297 298 299 300 300 298 299 302 301 300 301 302 302
298 299 297 295 294 298 299 301 302 299 300 301 302 301 299 299 302 301 302 303 304 302
298 298 295 296 299 300 301 301 300 299 302 304 304 305 299 298 302 303 302 302 302 303

GFSNIL_sfc_thetae_129.txt.gz
Theta_e
314 314 314 314 315 314 315 315 316 316 316 317 318 318 318 317 318 318 317 317 318 320
313 314 314 314 314 314 313 316 314 314 312 314 314 313 313 312 312 312 312 312 313 314
312 312 314 313 312 312 312 310 310 311 310 309 309 310 307 306 309 307 307 308 306 306
307 309 309 308 307 306 306 305 305 306 306 306 305 304 303 303 305 305 303 302 303 303
305 306 305 305 304 304 303 303 303 303 303 304 304 303 302 302 302 303 301 301 301 301
302 302 302 302 301 302 301 300 300 301 301 301 302 301 300 300 300 301 299 299 299 299
299 300 300 300 299 299 299 298 298 299 300 300 300 300 300 300 299 298 300 300 299 299
297 298 299 299 298 298 298 298 298 298 299 299 299 301 299 299 298 297 298 299 299 300
297 298 297 297 297 297 297 297 297 297 297 297 300 300 301 302 298 298 298 298 299 299
296 296 296 296 296 295 295 295 295 296 296 297 298 299 298 300 300 300 300 299 298 299
294 295 295 295 294 294 294 294 295 296 297 296 298 299 298 299 301 302 302 302 301 301
293 298 299 294 293 294 295 299 296 297 297 297 301 299 298 299 303 303 303 304 304 304
297 298 293 293 294 298 300 300 300 299 299 299 302 300 298 299 303 302 303 304 305 303
295 295 293 294 296 298 300 301 301 301 302 304 305 304 299 298 301 302 302 302 302 304